DW7287 Weather Reports


Display with metric or nautical units.
time (UTC)temp
F
wind
direction
speed
MPH
gust
MPH
rain 1hr
in
rain 24hr
in
rain mn
in
humidity
%
barometer
mb
20260906224607 77 0 0.0 2.0 0.00 0.00 0.00 65 1015.2
20260906223111 77 36 0.0 2.0 0.00 0.00 0.00 66 1015.2
20260906221601 78 0 0.0 3.0 0.00 0.00 0.00 61 1015.2
20260906220107 78 0 0.0 4.0 0.00 0.00 0.00 61 1015.2
20260906214606 79 173 1.0 6.0 0.00 0.00 0.00 60 1015.1
20260906213106 79 22 1.0 6.0 0.00 0.00 0.00 61 1014.9
20260906211603 79 10 1.0 4.0 0.00 0.00 0.00 59 1014.8
20260906210115 79 25 2.0 7.0 0.00 0.00 0.00 56 1014.9
20260906204604 79 269 2.0 7.0 0.00 0.00 0.00 56 1014.9
20260906203108 79 126 1.0 4.0 0.00 0.00 0.00 54 1014.9
20260906201601 80 229 0.0 6.0 0.00 0.00 0.00 61 1015.0
20260906194558 79 0 0.0 6.0 0.00 0.00 0.00 62 1015.1
20260906193102 79 0 0.0 5.0 0.00 0.00 0.00 63 1015.2
20260906191601 79 193 1.0 5.0 0.00 0.00 0.00 62 1015.1
20260906190104 79 286 2.0 7.0 0.00 0.00 0.00 64 1015.2
20260906184610 79 254 1.0 7.0 0.00 0.00 0.00 63 1015.2
20260906183105 79 278 0.0 7.0 0.00 0.00 0.00 66 1015.3
20260906181603 80 352 1.0 6.0 0.00 0.00 0.00 64 1015.3
20260906180058 80 46 1.0 4.0 0.00 0.00 0.00 64 1015.5
20260906174603 79 83 0.0 5.0 0.00 0.00 0.00 70 1015.5
20260906173107 79 360 1.0 11.0 0.00 0.00 0.00 70 1015.6
20260906171602 79 291 1.0 5.0 0.00 0.00 0.00 71 1015.8
20260906164620 79 60 2.0 9.0 0.00 0.00 0.00 72 1016.0
20260906163108 78 103 1.0 4.0 0.00 0.00 0.00 73 1016.0
20260906161605 78 0 1.0 6.0 0.00 0.00 0.00 75 1016.1
20260906160059 76 267 1.0 6.0 0.00 0.00 0.00 78 1016.3
20260906154609 75 274 0.0 4.0 0.00 0.00 0.00 82 1016.3
20260906153106 76 0 1.0 6.0 0.00 0.00 0.00 81 1016.4
20260906151609 74 290 1.0 4.0 0.00 0.00 0.00 84 1016.2
20260906150109 73 0 1.0 4.0 0.00 0.00 0.00 87 1016.2
20260906144631 73 290 0.0 2.0 0.00 0.00 0.00 88 1016.3
20260906143115 72 119 0.0 3.0 0.00 0.00 0.00 91 1016.3
20260906141605 71 38 1.0 3.0 0.00 0.00 0.00 95 1016.1
20260906134604 69 0 0.0 2.0 0.00 0.01 0.00 96 1016.0
20260906133108 69 360 0.0 2.0 0.00 0.01 0.00 96 1015.8
20260906131615 69 0 0.0 1.0 0.00 0.01 0.00 97 1015.6
20260906130106 69 0 0.0 1.0 0.00 0.01 0.00 96 1015.5
20260906124605 69 0 0.0 1.0 0.00 0.28 0.00 97 1015.3
20260906123107 69 0 0.0 2.0 0.00 0.28 0.00 97 1015.3
20260906121602 69 0 0.0 1.0 0.00 0.28 0.00 97 1015.5
20260906120126 69 0 0.0 1.0 0.00 0.28 0.00 97 1015.2
20260906114603 69 0 0.0 1.0 0.00 0.58 0.00 97 1015.0
20260906113101 69 0 0.0 1.0 0.00 0.58 0.00 97 1014.7
20260906111559 69 0 0.0 1.0 0.00 0.58 0.00 97 1014.5
20260906110111 69 0 0.0 3.0 0.00 0.58 0.00 97 1014.4
20260906104601 69 0 0.0 2.0 0.00 0.58 0.00 97 1014.0
20260906103101 69 0 0.0 3.0 0.00 0.58 0.00 97 1013.9
20260906101604 69 0 0.0 2.0 0.00 0.58 0.00 97 1013.8
20260906100105 69 0 0.0 2.0 0.00 0.58 0.00 96 1013.7
20260906094606 69 0 0.0 3.0 0.00 0.58 0.00 96 1013.7
20260906093117 69 360 0.0 2.0 0.00 0.58 0.00 96 1013.8
20260906091605 68 360 0.0 1.0 0.00 0.58 0.00 96 1013.8
20260906090133 68 0 0.0 2.0 0.00 0.58 0.00 96 1013.9
20260906084602 68 360 0.0 2.0 0.00 0.58 0.00 96 1013.9
20260906083100 68 0 0.0 1.0 0.00 0.58 0.00 96 1013.8
20260906081604 68 0 0.0 1.0 0.00 0.58 0.00 96 1013.8
20260906080105 68 0 0.0 1.0 0.00 0.58 0.00 96 1013.8
20260906074604 68 0 0.0 1.0 0.00 0.58 0.00 96 1013.6
20260906073110 68 0 0.0 1.0 0.00 0.58 0.00 96 1013.7
20260906071611 68 0 0.0 2.0 0.00 0.58 0.00 96 1013.7
20260906070105 68 360 0.0 1.0 0.00 0.58 0.00 96 1013.7
20260906064604 68 360 1.0 2.0 0.00 0.58 0.00 96 1013.8
20260906063103 68 0 0.0 1.0 0.00 0.58 0.00 95 1013.7
20260906061600 68 360 0.0 0.0 0.00 0.58 0.00 95 1013.8
20260906054603 68 360 0.0 1.0 0.00 0.58 0.00 95 1013.8
20260906053105 69 0 0.0 0.0 0.00 0.58 0.00 95 1013.8
20260906051607 69 0 0.0 1.0 0.00 0.58 0.00 95 1013.7
20260906050126 69 0 0.0 1.0 0.00 0.58 0.00 94 1013.7
20260906044602 69 0 0.0 1.0 0.00 0.58 0.00 94 1013.7
20260906043109 69 0 0.0 0.0 0.00 0.58 0.00 95 1013.6
20260906041606 69 0 0.0 0.0 0.00 0.58 0.00 95 1013.5
20260906040114 70 0 0.0 1.0 0.00 0.58 0.00 95 1013.6
20260906034603 70 0 0.0 0.0 0.00 0.58 0.58 95 1013.6
20260906033103 70 0 0.0 0.0 0.00 0.58 0.58 95 1013.9
20260906031606 70 0 0.0 1.0 0.00 0.58 0.58 95 1014.0
20260906030134 70 0 0.0 1.0 0.00 0.58 0.58 94 1014.1
20260906024609 70 0 0.0 1.0 0.00 0.58 0.58 94 1014.3
20260906023112 70 0 0.0 2.0 0.00 0.58 0.58 94 1014.2
20260906021612 71 0 0.0 0.0 0.00 0.58 0.58 93 1014.0
20260906014625 71 0 0.0 1.0 0.00 0.58 0.58 92 1013.9
20260906013103 72 0 0.0 1.0 0.00 0.58 0.58 92 1013.7
20260906011606 72 0 0.0 1.0 0.00 0.58 0.58 91 1013.5
20260906004608 73 0 0.0 1.0 0.00 0.58 0.58 90 1013.1
20260906003109 74 0 0.0 1.0 0.00 0.58 0.58 89 1012.8
20260906001603 74 0 0.0 1.0 0.00 0.58 0.58 88 1013.0
20260906000104 76 0 0.0 1.0 0.00 0.58 0.58 87 1013.2
20260905234615 76 0 0.0 0.0 0.00 0.58 0.58 86 1013.2
20260905233104 76 0 0.0 0.0 0.00 0.58 0.58 84 1013.1
20260905231603 77 0 0.0 0.0 0.00 0.58 0.58 82 1013.0
20260905230109 78 0 0.0 1.0 0.00 0.58 0.58 82 1013.1